Location: Coupvray
(48.8929°N, 2.7967°E)
Time: 22:47:28
(UTC+00:00)

Cosmos 1241 Rocket - Pass Details

Date: 06 November 2020
Orbit: 929 x 1018 km, 65.8° (Epoch: 28 November)

Event Time Altitude Azimuth Distance (km) Brightness Sun altitude
Rises 19:28:42 0° 311° (NW) 3,722 8.4 -31.2°
Reaches altitude 10° 19:32:07 10° 328° (NNW) 2,786 7.3 -31.7°
Enters shadow 19:36:24 20° 10° (N) 2,175 6.3 -32.4°
